This is the latest recevied weather packets stored in our database for station/object W4KBW. If no packets are shown the sender has not sent any weather packets the latest 10 day(s).
| Time | Temp. | Humidity | Pressure | Rain* | Wind** | Luminosity | Snow |
|---|---|---|---|---|---|---|---|
| 1777564322 | 29.44° C | 100% | 1010.9 hPa | 0 mm | - | - | - |
| 1777563362 | 28.89° C | 100% | 1011 hPa | 0 mm | - | - | - |
| 1777562432 | 28.89° C | 100% | 1011.1 hPa | 0 mm | - | - | - |
| 1777561683 | 28.33° C | 100% | 1011.1 hPa | 0 mm | - | - | - |
| 1777561532 | 28.33° C | 100% | 1011.1 hPa | 0 mm | - | - | - |
| 1777560632 | 27.78° C | 100% | 1011.1 hPa | 0 mm | - | - | - |
| 1777559732 | 26.67° C | 100% | 1010.8 hPa | 0 mm | - | - | - |
| 1777558832 | 25.56° C | 100% | 1010.7 hPa | 0 mm | - | - | - |
| 1777558095 | 25.56° C | 100% | 1011 hPa | 0 mm | - | - | - |
| 1777557932 | 25.56° C | 100% | 1011 hPa | 0 mm | - | - | - |
| 1777557032 | 25.56° C | 100% | 1011.1 hPa | 0 mm | - | - | - |
| 1777556308 | 25° C | 100% | 1011.1 hPa | 0 mm | - | - | - |
| 1777556132 | 25° C | 100% | 1011.1 hPa | 0 mm | - | - | - |
| 1777555232 | 24.44° C | 100% | 1011.2 hPa | 0 mm | - | - | - |
| 1777554302 | 24.44° C | 100% | 1011.3 hPa | 0 mm | - | - | - |
| 1777553402 | 24.44° C | 100% | 1011.4 hPa | 0 mm | - | - | - |
| 1777552502 | 23.89° C | 100% | 1011.2 hPa | 0 mm | - | - | - |
| 1777551602 | 23.33° C | 100% | 1011 hPa | 0 mm | - | - | - |
| 1777550702 | 23.33° C | 100% | 1010.9 hPa | 0 mm | - | - | - |
| 1777549802 | 23.33° C | 100% | 1010.8 hPa | 0 mm | - | - | - |
| 1777548872 | 23.33° C | 100% | 1010.6 hPa | 0 mm | - | - | - |
| 1777547942 | 22.78° C | 100% | 1010.3 hPa | 0 mm | - | - | - |
| 1777547042 | 22.78° C | 100% | 1010.1 hPa | 0 mm | - | - | - |
| 1777546112 | 22.78° C | 100% | 1009.6 hPa | 0 mm | - | - | - |
| 1777545212 | 22.78° C | 100% | 1010 hPa | 0 mm | - | - | - |
* Rain latest hour (hover to see other rain measurements)
** Current wind speed in m/s (hover to see current wind gust speed)